Regional Weather Roundup
Issued by NWS Wakefield, VA

Home | Current Version | Previous Version | Text Only | Print | Product List | Glossary On
Versions: 1 2 3 4 5 6 7 8 9 10 11 12 13 14 15 16 17 18 19 20 21 22 23 24 25 26 27 28 29 30 31 32 33 34 35 36 37 38 39 40 41 42 43 44 45 46 47 48 49 50
000
ASUS41 KAKQ 210610
RWRAKQ

REGIONAL WEATHER ROUNDUP
NATIONAL WEATHER SERVICE WAKEFIELD VA
200 AM EDT THU AUG 21 2014

Note: "fair" indicates few or no clouds below 12,000 feet with no
significant weather and/or obstructions to visibility. * = Denotes
station may not report precipitation (e.g., rain,snow,etc.),
thunder or fog.

VAZ042-051-052>054-056-210700-
NORTHERN VIRGINIA

CITY           SKY/WX    TMP DP  RH WIND       PRES   REMARKS
WASH NATIONAL  FAIR      73  65  75 CALM      30.01F
DULLES         FAIR      65  64  97 SE3       30.00F
FORT BELVOIR   FAIR      66  64  94 SE2       30.01S FOG
QUANTICO       FAIR      70  67  90 CALM      30.01S
FREDERICKSBRG* CLOUDY    69  69 100 CALM      30.01R FOG
STAFFORD*      FOG       65  65 100 CALM      30.05R VSB 1
WARRENTON      FOG       67  67 100 NE3       30.00S VSB 1/4
CULPEPER*      FOG      N/A N/A N/A CALM      30.01S VSB 3/4
MANASSAS*      FAIR      66  66 100 CALM      30.01S
LEESBURG*      FAIR      64  64 100 NW3       30.02F
WINCHESTER     FOG       66  64  94 CALM      30.01F VSB 1/2
$$

VAZ048-049-060>072-079>083-210700-
CENTRAL AND SOUTH CENTRAL VIRGINIA...AND NORTH CENTRAL NORTH CAROLINA

CITY           SKY/WX    TMP DP  RH WIND       PRES   REMARKS
RICHMOND       CLOUDY    74  69  85 CALM      30.00S
CHESTERFIELD*  FAIR      72  59  64 CALM      30.01F
HANOVER        FOG       68  67  96 CALM      30.02S VSB 1
TAPPAHANNOCK*  CLOUDY    73  67  84 CALM      30.01S
CHARLOTTSVILLE FAIR      66  66 100 S3        30.00F
ORANGE*        FAIR      68  66  94 SW6       30.01S
LOUISA*        FOG       66  66 100 CALM      29.99S VSB 3/4
FARMVILLE*     FAIR      70  68  94 CALM      29.98F
SOUTH HILL*    FAIR      75  75 100 NW6       30.04F
ROANOKE RAPIDS FAIR      72  72 100 CALM      29.97F
RALEIGH        FAIR      75  71  87 S3        30.01F
$$

VAZ088>098-210700-
SOUTHEAST VIRGINIA

CITY           SKY/WX    TMP DP  RH WIND       PRES   REMARKS
NORFOLK        FAIR      73  69  87 S5        30.00F
VIRGINIA BEACH MOCLDY    72  69  90 E3        30.00F
NORFOLK NAVAL  FAIR      76  70  82 SE6       30.01F
WEST POINT*    CLOUDY    76  71  83 CALM      30.02S
NEWPORT NEWS   FAIR      78  70  76 S3        30.00F
LANGLEY AFB    FAIR      75  74  98 S5        29.99F
FORT EUSTIS    FAIR      76  76 100 S8        29.99S
WILLIAMSBURG*  FAIR      79  73  83 S7        30.01F
FRANKLIN*      FAIR      73  72  94 CALM      29.99F
WAKEFIELD      MOCLDY    74  70  87 N6        30.01R
$$

VAZ020-022-025-037-045-210700-
WESTERN AND SOUTHWEST VIRGINIA

CITY           SKY/WX    TMP DP  RH WIND       PRES   REMARKS
STAUNTON*      FOG       65  63  95 CALM      30.05F VSB 1/2
HOT SPRINGS VA FAIR      64  62  93 W8        30.18F
LYNCHBURG      CLOUDY    73  72  96 CALM      30.04F
DANVILLE       FAIR      71  68  90 CALM      30.01F
MARTINSVILLE     N/A     69  69  99 CALM      30.05S FOG
ROANOKE        MOCLDY    69  66  90 NW3       30.06S
BLACKSBURG     FAIR      66  66 100 CALM      30.12S FOG
DUBLIN*        FAIR      69  69 100 SW5       30.11F
MARION*        MOCLDY    67  65  93 W12       30.17F
HILLSVILLE*    FAIR      68  60  76 NW6       30.14F
RICHLANDS*     CLOUDY    68  65  92 S3        30.17S
WISE*          FAIR      64  64 100 SW9       30.17F
ABINGDON*      CLOUDY    68  67  98 W5        30.15S
$$

MDZ021>025-VAZ099-100-210700-
SOUTHERN MARYLAND AND THE DELMARVA PENINSULA

CITY           SKY/WX    TMP DP  RH WIND       PRES   REMARKS
PATUXENT RIVER NOT AVBL
BAY BRIDGE APT   N/A     72  64  78 SE7       30.01S
LEONARDTOWN    CLOUDY    70  68  94 CALM      30.02S
DOVER          FAIR      67  66  94 CALM      30.00F
GEORGETOWN     FAIR      67  63  87 E8        30.02F
EASTON         CLOUDY    71  67  87 CALM      30.05F
CAMBRIDGE      CLOUDY    72  66  83 CALM      30.01F
SALISBURY      CLOUDY    69  65  86 W3        30.02S
OCEAN CITY     FAIR      73  67  81 S3        30.02F
WALLOPS ISLAND MOCLDY    74  70  87 SE7       30.01F
ACCOMACK*      FAIR      72  68  88 SE3       30.01S
$$

NCZ012>017-030>032-210700-
EASTERN NORTH CAROLINA

CITY           SKY/WX    TMP DP  RH WIND       PRES   REMARKS
ELIZABETH CITY FAIR      73  71  93 CALM      30.01S FOG
AHOSKIE*       FAIR      72  71  96 CALM      29.99F
EDENTON*       FAIR      76  74  93 S6        30.00S
CURRITUCK*     FAIR      73  67  83 CALM      30.02S
KILL DEVIL HLS FAIR      74  72  91 CALM      30.00S
MANTEO         FAIR      75  72  88 CALM      30.02R
CAPE HATTERAS  FAIR      74  73  97 SE5       30.01F
GOLDSBORO      FAIR      76  75  98 S3        29.98F
WASHINGTON     FAIR      76  74  95 S3        30.00F
GREENVILLE     FAIR      77  75  94 S3        30.01F
NEW BERN       FAIR      77  73  87 S3        30.02F
WILMINGTON     FAIR      74  73  97 CALM      30.01F FOG
$$

VAZ048-210700-
ELSEWHERE

CITY           SKY/WX    TMP DP  RH WIND       PRES   REMARKS
HARRISBURG PA  FAIR      71  66  84 CALM      30.00F
BALTIMORE      FAIR      67  64  90 CALM      30.00F
ANNAPOLIS      MOCLDY    73  68  84 SE6       30.01S
ANDREWS AFB    FAIR      68  65  89 E2        30.01F
WILMINGTON DE  FAIR      72  66  81 CALM      30.03F
PHILADELPHIA   MOCLDY    72  64  76 SE3       30.03F
WILDWOOD NJ*   FAIR      68  61  77 CALM      30.03F
ATLANTIC CITY  CLOUDY    69  63  81 CALM      30.03F
HENDERSON NC   FAIR      70  67  93 S3        30.00F
GREENSBORO     MOCLDY    74  71  91 CALM      30.02F
ROCKY MOUNT    FAIR      73  71  93 CALM      30.00F FOG
FAYETTEVILLE   FAIR      76  73  91 CALM      30.00F
CHARLOTTE      CLOUDY    75  68  78 S3        30.02F
$$

VAZ100-210700-
MARINE

STATION/POSITION TIME  TEMP    WIND        PRES    WAVE   SWELL
                       AIR SEA DIR/SP/G            HT/PER HT/PER
                 (UTC) (F)     (DEG/KT/KT) (MB)    (FT/S) (FT/S)
44066 TX TWR #4  0600   71 73   10/  8/ 10 1016.8R   3/ 6   3/ 6
CAPE MAY NJ      0600   71 79  100/  2/  2 1016.4F
LEWES DE         0600   72 74  130/  2/  2 1016.1F
15NM E FENWICK I 0600   74 75              1016.4F   3/ 6
OCEAN-CITY-INLET 0600   74 76  170/  4/  7 1015.8S
WACHAPREAGUE VA  0600   75 81  150/  5/  6 1016.1F
THOMAS POINT MD  0600   74 78  150/ 10/ 11 1016.7S
GOOSES REEF MD   0600   74     150/ 10/ 12 1016.3F
COVE POINT MD    0600   74     160/ 10/ 11 1015.7F
SOLOMONS ISLAND  0600      80                N/A
BISHOPS HEAD MD  0600   74 78  130/  8/ 10 1015.5F
PINEY POINT MD   0600          180/  8/  9   N/A
POTOMAC MD       0600   76     150/ 12/ 14 1015.1F
CAMBRIDGE MD     0600   72 78  140/  3/  5 1015.9R
LEWISETTA VA     0600   75 80  200/  7/  8 1015.6F
RAPPAHANNOCK LGT 0600          150/  8/  9 1016.7R
STINGRAY PT      0600   77     180/ 12/ 14 1016.7S
YORK RVR RNG VA  0600   77     190/ 12/ 14 1015.3S
YORKTOWN VA      0600   75 80  170/  5/  6 1015.4F
JAMESTOWN VA     0600   74     170/  8/ 10   N/A
DOMINION TERM VA 0600   76     140/  7/  8 1015.9F
KIPTOPEKE VA     0600      81  180/ 10/ 12   N/A
CHES BAY BRIDGE  0600   76 79  160/  7/  9 1015.4F
CAPE HENRY VA    0600   74     170/  6/  7 1014.8F
CHESAPEAKE LGHT  0500   76     170/ 10/ 10 1017.0F
WILLOUBY STN VA  0600   75      CALM  /  3 1014.6F
S CRANEY ISL VA  0600          140/ 10/ 11 1015.4F
CAPE HENRY BUOY  0600      77                N/A     2/ 6
1ST LANDING BUOY 0600   76     180/  6/  8 1015.9R
CAPE CHARLES BUO 0600      77                N/A     3/ 6   2/ 6
OFFSHORE WE BUOY 0600      77                N/A     3/ 6   2/ 6
64NM E OF VA BCH 0600   76 78  190/  2/  2 1016.3F   3/ 6   2/ 6
DUCK PIER NC     0600   77 79  160/  7/  8 1015.5S
44056 DUCK FRF   0600                        N/A     2/ 5
OREGON INLET NC  0600   76 81  130/  3/  5 1016.0F
HATTERAS NC      0600   79 81  140/  4/  6 1016.6F
DIAMOND SHLS NC  0600   78      CALM  /  4 1016.3F   2/ 8
CAPE LOOKOUT NC  0500   80     230/  5/  6 1016.7F
$$



USA.gov is the U.S. government's official web portal to all federal, state and local government web resources and services.